Yangon, Myanmar

3:00 AM +0630 on December 12, 2018 (GMT +0630)
Yangon International

Weather History for VYYY - October, 2018

Change the Weather History Date:

Friday, October 12, 2018

  Actual Average Record
Temperature  
Mean Temperature 80 °F -  
Max Temperature 91 °F - - ()
Min Temperature 69 °F - - ()
Cooling Degree Days 15    
Growing Degree Days 30 (Base 50)    
Moisture  
Dew Point 77 °F    
Average Humidity 87    
Maximum Humidity 100    
Minimum Humidity 59    
Precipitation  
Precipitation 0.00 in - - ()
Sea Level Pressure  
Sea Level Pressure 29.90 in    
Wind  
Wind Speed 3 mph ()    
Max Wind Speed 9 mph    
Max Gust Speed -    
Visibility 3.7 miles    
Events Rain , Thunderstorm    
T = Trace of Precipitation, MM = Missing Value Source: Averaged Metar Reports

Daily Weather History Graph

Daily Weather History Graph

Search for Another Location

Airport or City:

Astronomy

Oct. 12, 2018 Rise Set
Actual Time 5:57 AM +0630 5:46 PM +0630
Civil Twilight 5:35 AM +0630 6:08 PM +0630
Nautical Twilight 5:10 AM +0630 6:33 PM +0630
Astronomical Twilight 4:45 AM +0630 6:58 PM +0630
Moon 8:40 AM +0630 (10/12) 8:24 PM +0630 (10/12)
Length of Visible Light 12h 32m
Length of Day
11h 48m
Waxing Crescent, 11% of the Moon is Illuminated
Oct 12
Waxing Crescent
Oct 17
First Quarter
Oct 24
Full
Oct 31
Last Quarter
Nov 7
New

Hourly Weather History & Observations

Time (+0630) Temp. Heat Index Dew Point Humidity Pressure Visibility Wind Dir Wind Speed Gust Speed Precip Events Conditions
12:00 AM 78.8 °F - 77.0 °F 94% 29.92 in 3.7 mi ESE 3.5 mph - N/A   Scattered Clouds
12:30 AM 78.8 °F - 77.0 °F 94% 29.92 in 3.7 mi SE 3.5 mph - N/A   Scattered Clouds
1:00 AM 78.8 °F - 77.0 °F 94% 29.92 in 3.7 mi ESE 2.3 mph - N/A   Scattered Clouds
1:30 AM 78.8 °F - 77.0 °F 94% 29.92 in 3.7 mi ENE 3.5 mph - N/A   Scattered Clouds
2:00 AM 78.8 °F - 77.0 °F 94% 29.89 in 3.7 mi NNW 2.3 mph - N/A   Scattered Clouds
2:30 AM 78.8 °F - 77.0 °F 94% 29.89 in 3.7 mi NW 2.3 mph - N/A   Scattered Clouds
3:00 AM 78.8 °F - 77.0 °F 94% 29.89 in 3.7 mi NW 2.3 mph - N/A   Scattered Clouds
3:30 AM 78.8 °F - 77.0 °F 94% 29.89 in 3.7 mi South 2.3 mph - N/A   Scattered Clouds
4:00 AM 78.8 °F - 77.0 °F 94% 29.86 in 3.7 mi NE 3.5 mph - N/A   Haze
5:00 AM 78.8 °F - 77.0 °F 94% 29.89 in 1.9 mi NW 2.3 mph - N/A   Scattered Clouds
5:30 AM 78.8 °F - 77.0 °F 94% 29.89 in 1.2 mi North 2.3 mph - N/A   Scattered Clouds
6:00 AM 78.8 °F - 77.0 °F 94% 29.89 in 1.2 mi North 2.3 mph - N/A   Mostly Cloudy
6:30 AM 78 °F - 77 °F 94% 29.94 in 3 mi SE 1.2 mph - -   Mist
6:30 AM 78.8 °F - 77.0 °F 94% 29.92 in 1.2 mi North 2.3 mph - N/A   Mostly Cloudy
7:00 AM 78.8 °F - 77.0 °F 94% 29.92 in 2.5 mi NNE 2.3 mph - N/A   Mostly Cloudy
7:30 AM 78.8 °F - 77.0 °F 94% 29.92 in 2.5 mi ENE 3.5 mph - N/A   Mostly Cloudy
8:00 AM 78.8 °F - 77.0 °F 94% 29.95 in 3.7 mi ENE 3.5 mph - N/A   Haze
8:30 AM 80.6 °F 88.1 °F 78.8 °F 94% 29.95 in 4.3 mi East 3.5 mph - N/A   Mostly Cloudy
9:00 AM 82.4 °F 90.9 °F 77.0 °F 84% 29.95 in 4.3 mi ESE 3.5 mph - N/A   Mostly Cloudy
9:30 AM 83 °F - 78 °F 80% 29.97 in 4 mi NNE 1.2 mph - -   Mostly Cloudy
10:00 AM 84.2 °F 96.1 °F 78.8 °F 84% 29.95 in 5.0 mi NNE 4.6 mph - N/A   Mostly Cloudy
10:30 AM 86.0 °F 96.9 °F 77.0 °F 74% 29.95 in 5.0 mi ESE 4.6 mph - N/A   Partly Cloudy
11:30 AM 89.6 °F 108.2 °F 80.6 °F 75% 29.92 in 5.0 mi North 4.6 mph - N/A   Partly Cloudy
12:00 PM 89.6 °F 108.2 °F 80.6 °F 75% 29.89 in 5.0 mi East 4.6 mph - N/A   Partly Cloudy
12:30 PM 90 °F - 78 °F 59% 29.91 in 4 mi SSW 2.3 mph - -   Mostly Cloudy
12:30 PM 89.6 °F 108.2 °F 80.6 °F 75% 29.89 in 5.0 mi ESE 5.8 mph - N/A   Partly Cloudy
1:00 PM 89.6 °F 108.2 °F 80.6 °F 75% 29.86 in 5.0 mi East 6.9 mph - N/A   Partly Cloudy
1:30 PM 89.6 °F 102.2 °F 77.0 °F 66% 29.86 in 5.0 mi East 9.2 mph - N/A   Partly Cloudy
2:30 PM 89.6 °F 102.2 °F 77.0 °F 66% 29.83 in 5.0 mi East 5.8 mph - N/A   Partly Cloudy
3:00 PM 91.4 °F 102.5 °F 75.2 °F 59% 29.83 in 5.0 mi SE 4.6 mph - N/A   Partly Cloudy
3:30 PM 91 °F - 78 °F 59% 29.85 in 4 mi SW 2.3 mph - -  
3:30 PM 89.6 °F 102.2 °F 77.0 °F 66% 29.83 in 4.3 mi WSW 9.2 mph - N/A   Partly Cloudy
4:30 PM 82.4 °F 90.9 °F 77.0 °F 84% 29.86 in 3.7 mi North 6.9 mph - N/A Thunderstorm Thunderstorm
5:00 PM 77.0 °F - 77.0 °F 100% 29.86 in 3.1 mi NE 6.9 mph - N/A Rain , Thunderstorm Light Thunderstorms and Rain
5:30 PM 77.0 °F - 77.0 °F 100% 29.86 in 3.7 mi NW 1.2 mph - N/A Rain , Thunderstorm Light Thunderstorms and Rain
6:00 PM 78.8 °F - 77.0 °F 94% 29.86 in 3.7 mi WNW 1.2 mph - N/A   Mostly Cloudy
6:30 PM 80 °F - 76 °F 83% 29.88 in 3 mi NNW 1.2 mph - -   Partly Cloudy
6:30 PM 78.8 °F - 77.0 °F 94% 29.86 in 3.7 mi NW 2.3 mph - N/A   Mostly Cloudy
7:00 PM 78.8 °F - 77.0 °F 94% 29.89 in 3.7 mi WSW 3.5 mph - N/A   Mostly Cloudy
8:00 PM 78.8 °F - 77.0 °F 94% 29.92 in 3.7 mi NW 3.5 mph - N/A   Mostly Cloudy
8:30 PM 78.8 °F - 77.0 °F 94% 29.92 in 3.7 mi WNW 2.3 mph - N/A   Scattered Clouds
9:00 PM 78.8 °F - 77.0 °F 94% 29.95 in 3.7 mi WNW 2.3 mph - N/A   Scattered Clouds
9:30 PM 79 °F - 75 °F 85% 29.99 in 3 mi WNW 1.2 mph - -   Partly Cloudy
9:30 PM 78.8 °F - 77.0 °F 94% 29.95 in 3.7 mi North 4.6 mph - N/A   Scattered Clouds
10:00 PM 78.8 °F - 77.0 °F 94% 29.92 in 3.7 mi WNW 3.5 mph - N/A   Scattered Clouds
10:30 PM 78.8 °F - 77.0 °F 94% 29.92 in 3.7 mi WNW 3.5 mph - N/A   Scattered Clouds
11:30 PM 78.8 °F - 77.0 °F 94% 29.92 in 3.7 mi North 2.3 mph - N/A   Scattered Clouds